Year,Month,Day,Hour,Minute,Value (Times are PST for temperature in C)
2018,08,13,00,00,14.40
2018,08,13,00,01,14.40
2018,08,13,00,02,14.40
2018,08,13,00,03,14.40
2018,08,13,00,04,14.40
2018,08,13,00,05,14.40
2018,08,13,00,06,14.40
2018,08,13,00,07,14.40
2018,08,13,00,08,14.40
2018,08,13,00,09,14.40
2018,08,13,00,10,14.40
2018,08,13,00,11,14.40
2018,08,13,00,12,14.50
2018,08,13,00,13,14.50
2018,08,13,00,14,14.50
2018,08,13,00,15,14.50
2018,08,13,00,16,14.50
2018,08,13,00,17,14.50
2018,08,13,00,18,14.50
2018,08,13,00,19,14.50
2018,08,13,00,20,14.50
2018,08,13,00,21,14.50
2018,08,13,00,22,14.50
2018,08,13,00,23,14.50
2018,08,13,00,24,14.50
2018,08,13,00,25,14.50
2018,08,13,00,26,14.50
2018,08,13,00,27,14.50
2018,08,13,00,28,14.60
2018,08,13,00,29,14.60
2018,08,13,00,30,14.60
2018,08,13,00,31,14.60
2018,08,13,00,32,14.60
2018,08,13,00,33,14.60
2018,08,13,00,34,14.60
2018,08,13,00,35,14.60
2018,08,13,00,36,14.50
2018,08,13,00,37,14.50
2018,08,13,00,38,14.50
2018,08,13,00,39,14.50
2018,08,13,00,40,14.50
2018,08,13,00,41,14.40
2018,08,13,00,42,14.40
2018,08,13,00,43,14.40
2018,08,13,00,44,14.40
2018,08,13,00,45,14.40
2018,08,13,00,46,14.40
2018,08,13,00,47,14.30
2018,08,13,00,48,14.30
2018,08,13,00,49,14.30
2018,08,13,00,50,14.30
2018,08,13,00,51,14.30
2018,08,13,00,52,14.30
2018,08,13,00,53,14.30
2018,08,13,00,54,14.30
2018,08,13,00,55,14.30
2018,08,13,00,56,14.30
2018,08,13,00,57,14.30
2018,08,13,00,58,14.30
2018,08,13,00,59,14.30
2018,08,13,01,00,14.30
2018,08,13,01,01,14.30
2018,08,13,01,02,14.30
2018,08,13,01,03,14.30
2018,08,13,01,04,14.30
2018,08,13,01,05,14.30
2018,08,13,01,06,14.30
2018,08,13,01,07,14.30
2018,08,13,01,08,14.30
2018,08,13,01,09,14.30
2018,08,13,01,10,14.20
2018,08,13,01,11,14.20
2018,08,13,01,12,14.20
2018,08,13,01,13,14.20
2018,08,13,01,14,14.20
2018,08,13,01,15,14.20
2018,08,13,01,16,14.20
2018,08,13,01,17,14.20
2018,08,13,01,18,14.20
2018,08,13,01,19,14.10
2018,08,13,01,20,14.10
2018,08,13,01,21,14.10
2018,08,13,01,22,14.10
2018,08,13,01,23,14.10
2018,08,13,01,24,14.00
2018,08,13,01,25,14.00
2018,08,13,01,26,14.00
2018,08,13,01,27,13.90
2018,08,13,01,28,13.90
2018,08,13,01,29,13.90
2018,08,13,01,30,13.90
2018,08,13,01,31,13.90
2018,08,13,01,32,13.90
2018,08,13,01,33,13.90
2018,08,13,01,34,13.90
2018,08,13,01,35,13.90
2018,08,13,01,36,13.90
2018,08,13,01,37,13.90
2018,08,13,01,38,13.80
2018,08,13,01,39,13.80
2018,08,13,01,40,13.80
2018,08,13,01,41,13.80
2018,08,13,01,42,13.80
2018,08,13,01,43,13.80
2018,08,13,01,44,13.70
2018,08,13,01,45,13.70
2018,08,13,01,46,13.70
2018,08,13,01,47,13.70
2018,08,13,01,48,13.70
2018,08,13,01,49,13.70
2018,08,13,01,50,13.70
2018,08,13,01,51,13.60
2018,08,13,01,52,13.60
2018,08,13,01,53,13.60
2018,08,13,01,54,13.60
2018,08,13,01,55,13.60
2018,08,13,01,56,13.60
2018,08,13,01,57,13.60
2018,08,13,01,58,13.60
2018,08,13,01,59,13.60
2018,08,13,02,00,13.60
2018,08,13,02,01,13.50
2018,08,13,02,02,13.60
2018,08,13,02,03,13.50
2018,08,13,02,04,13.60
2018,08,13,02,05,13.60
2018,08,13,02,06,13.60
2018,08,13,02,07,13.60
2018,08,13,02,08,13.60
2018,08,13,02,09,13.60
2018,08,13,02,10,13.60
2018,08,13,02,11,13.60
2018,08,13,02,12,13.60
2018,08,13,02,13,13.60
2018,08,13,02,14,13.60
2018,08,13,02,15,13.60
2018,08,13,02,16,13.60
2018,08,13,02,17,13.60
2018,08,13,02,18,13.60
2018,08,13,02,19,13.60
2018,08,13,02,20,13.50
2018,08,13,02,21,13.50
2018,08,13,02,22,13.50
2018,08,13,02,23,13.50
2018,08,13,02,24,13.50
2018,08,13,02,25,13.60
2018,08,13,02,26,13.60
2018,08,13,02,27,13.60
2018,08,13,02,28,13.60
2018,08,13,02,29,13.60
2018,08,13,02,30,13.50
2018,08,13,02,31,13.50
2018,08,13,02,32,13.50
2018,08,13,02,33,13.50
2018,08,13,02,34,13.40
2018,08,13,02,35,13.40
2018,08,13,02,36,13.40
2018,08,13,02,37,13.40
2018,08,13,02,38,13.40
2018,08,13,02,39,13.40
2018,08,13,02,40,13.40
2018,08,13,02,41,13.40
2018,08,13,02,42,13.40
2018,08,13,02,43,13.30
2018,08,13,02,44,13.30
2018,08,13,02,45,13.30
2018,08,13,02,46,13.30
2018,08,13,02,47,13.30
2018,08,13,02,48,13.20
2018,08,13,02,49,13.20
2018,08,13,02,50,13.20
2018,08,13,02,51,13.20
2018,08,13,02,52,13.10
2018,08,13,02,53,13.10
2018,08,13,02,54,13.10
2018,08,13,02,55,13.10
2018,08,13,02,56,13.10
2018,08,13,02,57,13.10
2018,08,13,02,58,13.10
2018,08,13,02,59,13.10
2018,08,13,03,00,13.10
2018,08,13,03,01,13.10
2018,08,13,03,02,13.10
2018,08,13,03,03,13.00
2018,08,13,03,04,13.00
2018,08,13,03,05,13.00
2018,08,13,03,06,13.00
2018,08,13,03,07,13.00
2018,08,13,03,08,12.90
2018,08,13,03,09,12.90
2018,08,13,03,10,12.90
2018,08,13,03,11,12.90
2018,08,13,03,12,12.90
2018,08,13,03,13,12.90
2018,08,13,03,14,12.80
2018,08,13,03,15,12.80
2018,08,13,03,16,12.80
2018,08,13,03,17,12.80
2018,08,13,03,18,12.70
2018,08,13,03,19,12.70
2018,08,13,03,20,12.70
2018,08,13,03,21,12.70
2018,08,13,03,22,12.70
2018,08,13,03,23,12.80
2018,08,13,03,24,12.80
2018,08,13,03,25,12.80
2018,08,13,03,26,12.80
2018,08,13,03,27,12.80
2018,08,13,03,28,12.90
2018,08,13,03,29,12.90
2018,08,13,03,30,12.90
2018,08,13,03,31,12.90
2018,08,13,03,32,13.00
2018,08,13,03,33,13.00
2018,08,13,03,34,13.00
2018,08,13,03,35,13.10
2018,08,13,03,36,13.10
2018,08,13,03,37,13.10
2018,08,13,03,38,13.10
2018,08,13,03,39,13.10
2018,08,13,03,40,13.10
2018,08,13,03,41,13.10
2018,08,13,03,42,13.10
2018,08,13,03,43,13.10
2018,08,13,03,44,13.10
2018,08,13,03,45,13.10
2018,08,13,03,46,13.00
2018,08,13,03,47,13.00
2018,08,13,03,48,13.00
2018,08,13,03,49,13.00
2018,08,13,03,50,13.00
2018,08,13,03,51,12.90
2018,08,13,03,52,12.90
2018,08,13,03,53,12.90
2018,08,13,03,54,12.90
2018,08,13,03,55,12.90
2018,08,13,03,56,12.90
2018,08,13,03,57,12.90
2018,08,13,03,58,12.90
2018,08,13,03,59,12.90
2018,08,13,04,00,12.90
2018,08,13,04,01,12.90
2018,08,13,04,02,12.90
2018,08,13,04,03,12.90
2018,08,13,04,04,12.90
2018,08,13,04,05,12.90
2018,08,13,04,06,12.90
2018,08,13,04,07,12.80
2018,08,13,04,08,12.80
2018,08,13,04,09,12.80
2018,08,13,04,10,12.80
2018,08,13,04,11,12.80
2018,08,13,04,12,12.80
2018,08,13,04,13,12.80
2018,08,13,04,14,12.80
2018,08,13,04,15,12.80
2018,08,13,04,16,12.80
2018,08,13,04,17,12.80
2018,08,13,04,18,12.80
2018,08,13,04,19,12.80
2018,08,13,04,20,12.80
2018,08,13,04,21,12.80
2018,08,13,04,22,12.80
2018,08,13,04,23,12.90
2018,08,13,04,24,12.90
2018,08,13,04,25,12.90
2018,08,13,04,26,12.90
2018,08,13,04,27,12.90
2018,08,13,04,28,13.00
2018,08,13,04,29,13.00
2018,08,13,04,30,13.00
2018,08,13,04,31,13.10
2018,08,13,04,32,13.10
2018,08,13,04,33,13.10
2018,08,13,04,34,13.10
2018,08,13,04,35,13.10
2018,08,13,04,36,13.10
2018,08,13,04,37,13.10
2018,08,13,04,38,13.10
2018,08,13,04,39,13.20
2018,08,13,04,40,13.20
2018,08,13,04,41,13.20
2018,08,13,04,42,13.20
2018,08,13,04,43,13.20
2018,08,13,04,44,13.20
2018,08,13,04,45,13.20
2018,08,13,04,46,13.20
2018,08,13,04,47,13.20
2018,08,13,04,48,13.20
2018,08,13,04,49,13.20
2018,08,13,04,50,13.20
2018,08,13,04,51,13.20
2018,08,13,04,52,13.20
2018,08,13,04,53,13.20
2018,08,13,04,54,13.20
2018,08,13,04,55,13.20
2018,08,13,04,56,13.20
2018,08,13,04,57,13.20
2018,08,13,04,58,13.20
2018,08,13,04,59,13.20
2018,08,13,05,00,13.20
2018,08,13,05,01,13.20
2018,08,13,05,02,13.20
2018,08,13,05,03,13.20
2018,08,13,05,04,13.20
2018,08,13,05,05,13.10
2018,08,13,05,06,13.10
2018,08,13,05,07,13.10
2018,08,13,05,08,13.10
2018,08,13,05,09,13.10
2018,08,13,05,10,13.10
2018,08,13,05,11,13.00
2018,08,13,05,12,13.00
2018,08,13,05,13,13.00
2018,08,13,05,14,13.00
2018,08,13,05,15,13.00
2018,08,13,05,16,12.90
2018,08,13,05,17,12.90
2018,08,13,05,18,12.90
2018,08,13,05,19,12.90
2018,08,13,05,20,12.90
2018,08,13,05,21,12.90
2018,08,13,05,22,12.90
2018,08,13,05,23,12.90
2018,08,13,05,24,12.80
2018,08,13,05,25,12.90
2018,08,13,05,26,12.80
2018,08,13,05,27,12.80
2018,08,13,05,28,12.80
2018,08,13,05,29,12.80
2018,08,13,05,30,12.80
2018,08,13,05,31,12.80
2018,08,13,05,32,12.80
2018,08,13,05,33,12.80
2018,08,13,05,34,12.80
2018,08,13,05,35,12.80
2018,08,13,05,36,12.70
2018,08,13,05,37,12.70
2018,08,13,05,38,12.70
2018,08,13,05,39,12.70
2018,08,13,05,40,12.70
2018,08,13,05,41,12.70
2018,08,13,05,42,12.70
2018,08,13,05,43,12.70
2018,08,13,05,44,12.70
2018,08,13,05,45,12.70
2018,08,13,05,46,12.70
2018,08,13,05,47,12.70
2018,08,13,05,48,12.70
2018,08,13,05,49,12.60
2018,08,13,05,50,12.60
2018,08,13,05,51,12.60
2018,08,13,05,52,12.60
2018,08,13,05,53,12.60
2018,08,13,05,54,12.60
2018,08,13,05,55,12.60
2018,08,13,05,56,12.60
2018,08,13,05,57,12.60
2018,08,13,05,58,12.60
2018,08,13,05,59,12.60
2018,08,13,06,00,12.60
2018,08,13,06,01,12.60
2018,08,13,06,02,12.60
2018,08,13,06,03,12.60
2018,08,13,06,04,12.60
2018,08,13,06,05,12.70
2018,08,13,06,06,13.00
2018,08,13,06,07,13.40
2018,08,13,06,08,13.90
2018,08,13,06,09,14.40
2018,08,13,06,10,14.80
2018,08,13,06,11,15.30
2018,08,13,06,12,15.70
2018,08,13,06,13,16.00
2018,08,13,06,14,16.30
2018,08,13,06,15,16.60
2018,08,13,06,16,16.80
2018,08,13,06,17,17.00
2018,08,13,06,18,17.20
2018,08,13,06,19,17.40
2018,08,13,06,20,17.50
2018,08,13,06,21,17.60
2018,08,13,06,22,17.70
2018,08,13,06,23,17.80
2018,08,13,06,24,17.80
2018,08,13,06,25,17.80
2018,08,13,06,26,17.80
2018,08,13,06,27,17.80
2018,08,13,06,28,17.80
2018,08,13,06,29,17.80
2018,08,13,06,30,17.80
2018,08,13,06,31,17.80
2018,08,13,06,32,17.80
2018,08,13,06,33,17.80
2018,08,13,06,34,17.80
2018,08,13,06,35,17.90
2018,08,13,06,36,17.90
2018,08,13,06,37,18.00
2018,08,13,06,38,18.10
2018,08,13,06,39,18.10
2018,08,13,06,40,18.20
2018,08,13,06,41,18.20
2018,08,13,06,42,18.20
2018,08,13,06,43,18.20
2018,08,13,06,44,18.20
2018,08,13,06,45,18.10
2018,08,13,06,46,18.10
2018,08,13,06,47,18.10
2018,08,13,06,48,18.10
2018,08,13,06,49,18.10
2018,08,13,06,50,18.10
2018,08,13,06,51,18.10
2018,08,13,06,52,18.10
2018,08,13,06,53,18.20
2018,08,13,06,54,18.20
2018,08,13,06,55,18.30
2018,08,13,06,56,18.30
2018,08,13,06,57,18.30
2018,08,13,06,58,18.40
2018,08,13,06,59,18.40
2018,08,13,07,00,18.40
2018,08,13,07,01,18.50
2018,08,13,07,02,18.60
2018,08,13,07,03,18.60
2018,08,13,07,04,18.70
2018,08,13,07,05,18.70
2018,08,13,07,06,18.70
2018,08,13,07,07,18.70
2018,08,13,07,08,18.70
2018,08,13,07,09,18.70
2018,08,13,07,10,18.70
2018,08,13,07,11,18.70
2018,08,13,07,12,18.70
2018,08,13,07,13,18.70
2018,08,13,07,14,18.70
2018,08,13,07,15,18.70
2018,08,13,07,16,18.60
2018,08,13,07,17,18.60
2018,08,13,07,18,18.60
2018,08,13,07,19,18.60
2018,08,13,07,20,18.60
2018,08,13,07,21,18.60
2018,08,13,07,22,18.60
2018,08,13,07,23,18.60
2018,08,13,07,24,18.60
2018,08,13,07,25,18.60
2018,08,13,07,26,18.60
2018,08,13,07,27,18.60
2018,08,13,07,28,18.60
2018,08,13,07,29,18.60
2018,08,13,07,30,18.60
2018,08,13,07,31,18.60
2018,08,13,07,32,18.60
2018,08,13,07,33,18.50
2018,08,13,07,34,18.40
2018,08,13,07,35,18.40
2018,08,13,07,36,18.50
2018,08,13,07,37,18.50
2018,08,13,07,38,18.50
2018,08,13,07,39,18.50
2018,08,13,07,40,18.50
2018,08,13,07,41,18.40
2018,08,13,07,42,18.40
2018,08,13,07,43,18.40
2018,08,13,07,44,18.40
2018,08,13,07,45,18.40
2018,08,13,07,46,18.40
2018,08,13,07,47,18.50
2018,08,13,07,48,18.50
2018,08,13,07,49,18.60
2018,08,13,07,50,18.60
2018,08,13,07,51,18.60
2018,08,13,07,52,18.60
2018,08,13,07,53,18.70
2018,08,13,07,54,18.70
2018,08,13,07,55,18.70
2018,08,13,07,56,18.80
2018,08,13,07,57,18.80
2018,08,13,07,58,18.90
2018,08,13,07,59,18.90
2018,08,13,08,00,18.90
2018,08,13,08,01,18.90
2018,08,13,08,02,18.90
2018,08,13,08,03,18.90
2018,08,13,08,04,18.90
2018,08,13,08,05,18.90
2018,08,13,08,06,19.00
2018,08,13,08,07,19.00
2018,08,13,08,08,19.00
2018,08,13,08,09,19.10
2018,08,13,08,10,19.10
2018,08,13,08,11,19.00
2018,08,13,08,12,19.00
2018,08,13,08,13,19.00
2018,08,13,08,14,19.10
2018,08,13,08,15,19.10
2018,08,13,08,16,19.10
2018,08,13,08,17,19.10
2018,08,13,08,18,19.10
2018,08,13,08,19,19.10
2018,08,13,08,20,19.10
2018,08,13,08,21,19.20
2018,08,13,08,22,19.20
2018,08,13,08,23,19.20
2018,08,13,08,24,19.10
2018,08,13,08,25,19.10
2018,08,13,08,26,19.00
2018,08,13,08,27,18.90
2018,08,13,08,28,18.80
2018,08,13,08,29,18.60
2018,08,13,08,30,18.50
2018,08,13,08,31,18.40
2018,08,13,08,32,18.40
2018,08,13,08,33,18.50
2018,08,13,08,34,18.70
2018,08,13,08,35,18.80
2018,08,13,08,36,18.90
2018,08,13,08,37,19.00
2018,08,13,08,38,19.10
2018,08,13,08,39,19.20
2018,08,13,08,40,19.30
2018,08,13,08,41,19.30
2018,08,13,08,42,19.40
2018,08,13,08,43,19.40
2018,08,13,08,44,19.50
2018,08,13,08,45,19.50
2018,08,13,08,46,19.60
2018,08,13,08,47,19.60
2018,08,13,08,48,19.70
2018,08,13,08,49,19.80
2018,08,13,08,50,19.80
2018,08,13,08,51,19.80
2018,08,13,08,52,19.90
2018,08,13,08,53,19.90
2018,08,13,08,54,19.90
2018,08,13,08,55,19.90
2018,08,13,08,56,19.90
2018,08,13,08,57,19.80
2018,08,13,08,58,19.80
2018,08,13,08,59,19.70
2018,08,13,09,00,19.70
2018,08,13,09,01,19.70
2018,08,13,09,02,19.70
2018,08,13,09,03,19.70
2018,08,13,09,04,19.80
2018,08,13,09,05,19.80
2018,08,13,09,06,19.90
2018,08,13,09,07,19.90
2018,08,13,09,08,19.90
2018,08,13,09,09,19.90
2018,08,13,09,10,20.00
2018,08,13,09,11,20.00
2018,08,13,09,12,19.90
2018,08,13,09,13,19.80
2018,08,13,09,14,19.80
2018,08,13,09,15,19.80
2018,08,13,09,16,19.80
2018,08,13,09,17,19.70
2018,08,13,09,18,19.70
2018,08,13,09,19,19.70
2018,08,13,09,20,19.70
2018,08,13,09,21,19.80
2018,08,13,09,22,19.90
2018,08,13,09,23,19.90
2018,08,13,09,24,19.90
2018,08,13,09,25,19.90
2018,08,13,09,26,20.00
2018,08,13,09,27,20.00
2018,08,13,09,28,20.00
2018,08,13,09,29,20.10
2018,08,13,09,30,20.00
2018,08,13,09,31,20.00
2018,08,13,09,32,19.90
2018,08,13,09,33,19.80
2018,08,13,09,34,19.70
2018,08,13,09,35,19.60
2018,08,13,09,36,19.60
2018,08,13,09,37,19.60
2018,08,13,09,38,19.70
2018,08,13,09,39,19.70
2018,08,13,09,40,19.70
2018,08,13,09,41,19.70
2018,08,13,09,42,19.70
2018,08,13,09,43,19.70
2018,08,13,09,44,19.70
2018,08,13,09,45,19.70
2018,08,13,09,46,19.70
2018,08,13,09,47,19.70
2018,08,13,09,48,19.70
2018,08,13,09,49,19.70
2018,08,13,09,50,19.80
2018,08,13,09,51,19.80
2018,08,13,09,52,19.90
2018,08,13,09,53,19.90
2018,08,13,09,54,20.00
2018,08,13,09,55,20.10
2018,08,13,09,56,20.20
2018,08,13,09,57,20.20
2018,08,13,09,58,20.30
2018,08,13,09,59,20.20
2018,08,13,10,00,20.20
2018,08,13,10,01,20.20
2018,08,13,10,02,20.20
2018,08,13,10,03,20.20
2018,08,13,10,04,20.30
2018,08,13,10,05,20.30
2018,08,13,10,06,20.40
2018,08,13,10,07,20.50
2018,08,13,10,08,20.50
2018,08,13,10,09,20.50
2018,08,13,10,10,20.40
2018,08,13,10,11,20.40
2018,08,13,10,12,20.30
2018,08,13,10,13,20.40
2018,08,13,10,14,20.40
2018,08,13,10,15,20.50
2018,08,13,10,16,20.50
2018,08,13,10,17,20.50
2018,08,13,10,18,20.40
2018,08,13,10,19,20.30
2018,08,13,10,20,20.30
2018,08,13,10,21,20.30
2018,08,13,10,22,20.30
2018,08,13,10,23,20.30
2018,08,13,10,24,20.30
2018,08,13,10,25,20.20
2018,08,13,10,26,20.20
2018,08,13,10,27,20.10
2018,08,13,10,28,20.20
2018,08,13,10,29,20.20
2018,08,13,10,30,20.20
2018,08,13,10,31,20.30
2018,08,13,10,32,20.30
2018,08,13,10,33,20.30
2018,08,13,10,34,20.30
2018,08,13,10,35,20.30
2018,08,13,10,36,20.40
2018,08,13,10,37,20.40
2018,08,13,10,38,20.40
2018,08,13,10,39,20.40
2018,08,13,10,40,20.30
2018,08,13,10,41,20.30
2018,08,13,10,42,20.30
2018,08,13,10,43,20.20
2018,08,13,10,44,20.20
2018,08,13,10,45,20.20
2018,08,13,10,46,20.20
2018,08,13,10,47,20.20
2018,08,13,10,48,20.30
2018,08,13,10,49,20.40
2018,08,13,10,50,20.50
2018,08,13,10,51,20.60
2018,08,13,10,52,20.60
2018,08,13,10,53,20.60
2018,08,13,10,54,20.60
2018,08,13,10,55,20.60
2018,08,13,10,56,20.50
2018,08,13,10,57,20.50
2018,08,13,10,58,20.40
2018,08,13,10,59,20.40
2018,08,13,11,00,20.40
2018,08,13,11,01,20.40
2018,08,13,11,02,20.40
2018,08,13,11,03,20.40
2018,08,13,11,04,20.40
2018,08,13,11,05,20.40
2018,08,13,11,06,20.40
2018,08,13,11,07,20.40
2018,08,13,11,08,20.50
2018,08,13,11,09,20.50
2018,08,13,11,10,20.60
2018,08,13,11,11,20.70
2018,08,13,11,12,20.70
2018,08,13,11,13,20.70
2018,08,13,11,14,20.70
2018,08,13,11,15,20.80
2018,08,13,11,16,20.70
2018,08,13,11,17,20.70
2018,08,13,11,18,20.70
2018,08,13,11,19,20.70
2018,08,13,11,20,20.80
2018,08,13,11,21,20.80
2018,08,13,11,22,20.80
2018,08,13,11,23,20.70
2018,08,13,11,24,20.70
2018,08,13,11,25,20.70
2018,08,13,11,26,20.70
2018,08,13,11,27,20.70
2018,08,13,11,28,20.80
2018,08,13,11,29,20.90
2018,08,13,11,30,21.00
2018,08,13,11,31,21.00
2018,08,13,11,32,21.00
2018,08,13,11,33,21.10
2018,08,13,11,34,21.10
2018,08,13,11,35,21.10
2018,08,13,11,36,21.10
2018,08,13,11,37,21.10
2018,08,13,11,38,21.20
2018,08,13,11,39,21.20
2018,08,13,11,40,21.30
2018,08,13,11,41,21.40
2018,08,13,11,42,21.40
2018,08,13,11,43,21.50
2018,08,13,11,44,21.50
2018,08,13,11,45,21.50
2018,08,13,11,46,21.40
2018,08,13,11,47,21.40
2018,08,13,11,48,21.40
2018,08,13,11,49,21.40
2018,08,13,11,50,21.30
2018,08,13,11,51,21.30
2018,08,13,11,52,21.30
2018,08,13,11,53,21.30
2018,08,13,11,54,21.30
2018,08,13,11,55,21.30
2018,08,13,11,56,21.40
2018,08,13,11,57,21.50
2018,08,13,11,58,21.60
2018,08,13,11,59,21.70
2018,08,13,12,00,21.70
2018,08,13,12,01,21.70
2018,08,13,12,02,21.70
2018,08,13,12,03,21.70
2018,08,13,12,04,21.70
2018,08,13,12,05,21.70
2018,08,13,12,06,21.80
2018,08,13,12,07,21.90
2018,08,13,12,08,22.00
2018,08,13,12,09,22.10
2018,08,13,12,10,22.10
2018,08,13,12,11,22.20
2018,08,13,12,12,22.20
2018,08,13,12,13,22.20
2018,08,13,12,14,22.30
2018,08,13,12,15,22.30
2018,08,13,12,16,22.30
2018,08,13,12,17,22.40
2018,08,13,12,18,22.40
2018,08,13,12,19,22.40
2018,08,13,12,20,22.30
2018,08,13,12,21,22.40
2018,08,13,12,22,22.40
2018,08,13,12,23,22.40
2018,08,13,12,24,22.40
2018,08,13,12,25,22.30
2018,08,13,12,26,22.20
2018,08,13,12,27,22.20
2018,08,13,12,28,22.20
2018,08,13,12,29,22.10
2018,08,13,12,30,22.10
2018,08,13,12,31,22.10
2018,08,13,12,32,22.10
2018,08,13,12,33,22.10
2018,08,13,12,34,22.10
2018,08,13,12,35,22.00
2018,08,13,12,36,22.00
2018,08,13,12,37,21.90
2018,08,13,12,38,21.90
2018,08,13,12,39,22.00
2018,08,13,12,40,22.10
2018,08,13,12,41,22.20
2018,08,13,12,42,22.30
2018,08,13,12,43,22.40
2018,08,13,12,44,22.40
2018,08,13,12,45,22.40
2018,08,13,12,46,22.40
2018,08,13,12,47,22.30
2018,08,13,12,48,22.30
2018,08,13,12,49,22.20
2018,08,13,12,50,22.20
2018,08,13,12,51,22.20
2018,08,13,12,52,22.30
2018,08,13,12,53,22.30
2018,08,13,12,54,22.30
2018,08,13,12,55,22.30
2018,08,13,12,56,22.30
2018,08,13,12,57,22.40
2018,08,13,12,58,22.50
2018,08,13,12,59,22.50
2018,08,13,13,00,22.60
2018,08,13,13,01,22.70
2018,08,13,13,02,22.70
2018,08,13,13,03,22.80
2018,08,13,13,04,22.90
2018,08,13,13,05,22.90
2018,08,13,13,06,23.00
2018,08,13,13,07,23.00
2018,08,13,13,08,22.90
2018,08,13,13,09,22.90
2018,08,13,13,10,22.80
2018,08,13,13,11,22.80
2018,08,13,13,12,22.80
2018,08,13,13,13,22.80
2018,08,13,13,14,22.70
2018,08,13,13,15,22.70
2018,08,13,13,16,22.70
2018,08,13,13,17,22.70
2018,08,13,13,18,22.70
2018,08,13,13,19,22.80
2018,08,13,13,20,22.90
2018,08,13,13,21,23.00
2018,08,13,13,22,23.00
2018,08,13,13,23,23.10
2018,08,13,13,24,23.00
2018,08,13,13,25,23.10
2018,08,13,13,26,23.10
2018,08,13,13,27,23.10
2018,08,13,13,28,23.20
2018,08,13,13,29,23.20
2018,08,13,13,30,23.20
2018,08,13,13,31,23.20
2018,08,13,13,32,23.20
2018,08,13,13,33,23.10
2018,08,13,13,34,23.00
2018,08,13,13,35,23.00
2018,08,13,13,36,22.90
2018,08,13,13,37,23.00
2018,08,13,13,38,22.90
2018,08,13,13,39,22.90
2018,08,13,13,40,22.90
2018,08,13,13,41,22.80
2018,08,13,13,42,22.80
2018,08,13,13,43,22.90
2018,08,13,13,44,22.90
2018,08,13,13,45,22.90
2018,08,13,13,46,22.90
2018,08,13,13,47,22.80
2018,08,13,13,48,22.80
2018,08,13,13,49,22.80
2018,08,13,13,50,22.90
2018,08,13,13,51,22.90
2018,08,13,13,52,22.90
2018,08,13,13,53,22.90
2018,08,13,13,54,22.90
2018,08,13,13,55,22.80
2018,08,13,13,56,22.80
2018,08,13,13,57,22.70
2018,08,13,13,58,22.80
2018,08,13,13,59,22.80
2018,08,13,14,00,22.80
2018,08,13,14,01,22.90
2018,08,13,14,02,22.90
2018,08,13,14,03,22.90
2018,08,13,14,04,22.90
2018,08,13,14,05,22.90
2018,08,13,14,06,23.00
2018,08,13,14,07,23.00
2018,08,13,14,08,23.10
2018,08,13,14,09,23.20
2018,08,13,14,10,23.20
2018,08,13,14,11,23.20
2018,08,13,14,12,23.20
2018,08,13,14,13,23.30
2018,08,13,14,14,23.30
2018,08,13,14,15,23.30
2018,08,13,14,16,23.30
2018,08,13,14,17,23.30
2018,08,13,14,18,23.30
2018,08,13,14,19,23.30
2018,08,13,14,20,23.20
2018,08,13,14,21,23.20
2018,08,13,14,22,23.20
2018,08,13,14,23,23.30
2018,08,13,14,24,23.30
2018,08,13,14,25,23.30
2018,08,13,14,26,23.30
2018,08,13,14,27,23.30
2018,08,13,14,28,23.30
2018,08,13,14,29,23.30
2018,08,13,14,30,23.30
2018,08,13,14,31,23.30
2018,08,13,14,32,23.30
2018,08,13,14,33,23.30
2018,08,13,14,34,23.30
2018,08,13,14,35,23.30
2018,08,13,14,36,23.30
2018,08,13,14,37,23.30
2018,08,13,14,38,23.30
2018,08,13,14,39,23.30
2018,08,13,14,40,23.30
2018,08,13,14,41,23.30
2018,08,13,14,42,23.20
2018,08,13,14,43,23.30
2018,08,13,14,44,23.30
2018,08,13,14,45,23.30
2018,08,13,14,46,23.40
2018,08,13,14,47,23.30
2018,08,13,14,48,23.30
2018,08,13,14,49,23.30
2018,08,13,14,50,23.30
2018,08,13,14,51,23.30
2018,08,13,14,52,23.30
2018,08,13,14,53,23.40
2018,08,13,14,54,23.50
2018,08,13,14,55,23.60
2018,08,13,14,56,23.60
2018,08,13,14,57,23.60
2018,08,13,14,58,23.50
2018,08,13,14,59,23.40
2018,08,13,15,00,23.40
2018,08,13,15,01,23.40
2018,08,13,15,02,23.50
2018,08,13,15,03,23.50
2018,08,13,15,04,23.60
2018,08,13,15,05,23.70
2018,08,13,15,06,23.80
2018,08,13,15,07,23.90
2018,08,13,15,08,23.90
2018,08,13,15,09,23.90
2018,08,13,15,10,23.90
2018,08,13,15,11,23.90
2018,08,13,15,12,23.90
2018,08,13,15,13,23.80
2018,08,13,15,14,23.80
2018,08,13,15,15,23.70
2018,08,13,15,16,23.70
2018,08,13,15,17,23.70
2018,08,13,15,18,23.70
2018,08,13,15,19,23.70
2018,08,13,15,20,23.70
2018,08,13,15,21,23.70
2018,08,13,15,22,23.70
2018,08,13,15,23,23.70
2018,08,13,15,24,23.70
2018,08,13,15,25,23.70
2018,08,13,15,26,23.70
2018,08,13,15,27,23.70
2018,08,13,15,28,23.80
2018,08,13,15,29,23.90
2018,08,13,15,30,23.90
2018,08,13,15,31,23.90
2018,08,13,15,32,23.90
2018,08,13,15,33,23.90
2018,08,13,15,34,23.90
2018,08,13,15,35,23.80
2018,08,13,15,36,23.80
2018,08,13,15,37,23.80
2018,08,13,15,38,23.80
2018,08,13,15,39,23.80
2018,08,13,15,40,23.90
2018,08,13,15,41,23.90
2018,08,13,15,42,23.90
2018,08,13,15,43,23.90
2018,08,13,15,44,23.90
2018,08,13,15,45,23.90
2018,08,13,15,46,23.90
2018,08,13,15,47,24.00
2018,08,13,15,48,24.00
2018,08,13,15,49,24.10
2018,08,13,15,50,24.10
2018,08,13,15,51,24.00
2018,08,13,15,52,24.00
2018,08,13,15,53,24.00
2018,08,13,15,54,23.90
2018,08,13,15,55,23.90
2018,08,13,15,56,23.90
2018,08,13,15,57,23.80
2018,08,13,15,58,23.80
2018,08,13,15,59,23.80
2018,08,13,16,00,23.80
2018,08,13,16,01,23.80
2018,08,13,16,02,23.80
2018,08,13,16,03,23.80
2018,08,13,16,04,23.80
2018,08,13,16,05,23.80
2018,08,13,16,06,23.80
2018,08,13,16,07,23.80
2018,08,13,16,08,23.70
2018,08,13,16,09,23.70
2018,08,13,16,10,23.70
2018,08,13,16,11,23.70
2018,08,13,16,12,23.80
2018,08,13,16,13,23.80
2018,08,13,16,14,23.80
2018,08,13,16,15,23.80
2018,08,13,16,16,23.80
2018,08,13,16,17,23.80
2018,08,13,16,18,23.80
2018,08,13,16,19,23.70
2018,08,13,16,20,23.70
2018,08,13,16,21,23.60
2018,08,13,16,22,23.60
2018,08,13,16,23,23.60
2018,08,13,16,24,23.60
2018,08,13,16,25,23.60
2018,08,13,16,26,23.60
2018,08,13,16,27,23.60
2018,08,13,16,28,23.60
2018,08,13,16,29,23.60
2018,08,13,16,30,23.60
2018,08,13,16,31,23.60
2018,08,13,16,32,23.60
2018,08,13,16,33,23.60
2018,08,13,16,34,23.60
2018,08,13,16,35,23.60
2018,08,13,16,36,23.70
2018,08,13,16,37,23.80
2018,08,13,16,38,23.80
2018,08,13,16,39,23.80
2018,08,13,16,40,23.80
2018,08,13,16,41,23.80
2018,08,13,16,42,23.80
2018,08,13,16,43,23.70
2018,08,13,16,44,23.70
2018,08,13,16,45,23.70
2018,08,13,16,46,23.70
2018,08,13,16,47,23.80
2018,08,13,16,48,23.80
2018,08,13,16,49,23.80
2018,08,13,16,50,23.80
2018,08,13,16,51,23.80
2018,08,13,16,52,23.90
2018,08,13,16,53,23.90
2018,08,13,16,54,23.90
2018,08,13,16,55,23.90
2018,08,13,16,56,24.00
2018,08,13,16,57,24.00
2018,08,13,16,58,24.10
2018,08,13,16,59,24.10
2018,08,13,17,00,24.10
2018,08,13,17,01,24.10
2018,08,13,17,02,24.20
2018,08,13,17,03,24.20
2018,08,13,17,04,24.30
2018,08,13,17,05,24.30
2018,08,13,17,06,24.30
2018,08,13,17,07,24.20
2018,08,13,17,08,24.20
2018,08,13,17,09,24.20
2018,08,13,17,10,24.10
2018,08,13,17,11,24.00
2018,08,13,17,12,24.00
2018,08,13,17,13,24.00
2018,08,13,17,14,24.00
2018,08,13,17,15,24.00
2018,08,13,17,16,24.10
2018,08,13,17,17,24.10
2018,08,13,17,18,24.10
2018,08,13,17,19,24.00